| time (UTC) | temp F | wind direction | speed MPH | gust MPH | rain 1hr in | rain 24hr in | rain mn in | humidity % | barometer mb |
| 20260504044553 | 53 | 0 | 0.0 | 3.0 | 0.00 | 0.00 | 0.00 | 65 | 1017.8 |
| 20260504043053 | 53 | 177 | 1.0 | 4.0 | 0.00 | 0.00 | 0.00 | 64 | 1017.5 |
| 20260504041551 | 53 | 196 | 2.0 | 5.0 | 0.00 | 0.00 | 0.00 | 65 | 1017.7 |
| 20260504034601 | 54 | 217 | 1.0 | 4.0 | 0.00 | 0.00 | 0.00 | 62 | 1017.7 |
| 20260504033128 | 54 | 215 | 1.0 | 4.0 | 0.00 | 0.00 | 0.00 | 62 | 1017.7 |
| 20260504031603 | 55 | 211 | 2.0 | 7.0 | 0.00 | 0.00 | 0.00 | 60 | 1017.7 |
| 20260504030104 | 56 | 217 | 2.0 | 4.0 | 0.00 | 0.00 | 0.00 | 60 | 1017.6 |
| 20260504024552 | 56 | 0 | 0.0 | 4.0 | 0.00 | 0.00 | 0.00 | 60 | 1017.6 |
| 20260504023102 | 57 | 198 | 1.0 | 4.0 | 0.00 | 0.00 | 0.00 | 58 | 1017.4 |
| 20260504021559 | 58 | 174 | 2.0 | 5.0 | 0.00 | 0.00 | 0.00 | 56 | 1017.2 |
| 20260504020100 | 58 | 0 | 1.0 | 4.0 | 0.00 | 0.00 | 0.00 | 56 | 1017.0 |
| 20260504014552 | 58 | 192 | 1.0 | 5.0 | 0.00 | 0.00 | 0.00 | 55 | 1016.7 |
| 20260504013107 | 59 | 235 | 1.0 | 6.0 | 0.00 | 0.00 | 0.00 | 55 | 1016.5 |
| 20260504011551 | 60 | 0 | 1.0 | 3.0 | 0.00 | 0.00 | 0.00 | 53 | 1016.4 |
| 20260504010109 | 61 | 172 | 1.0 | 5.0 | 0.00 | 0.00 | 0.00 | 50 | 1016.4 |
| 20260504004610 | 62 | 0 | 1.0 | 3.0 | 0.00 | 0.00 | 0.00 | 48 | 1016.3 |
| 20260504003054 | 63 | 0 | 1.0 | 5.0 | 0.00 | 0.00 | 0.00 | 47 | 1016.0 |
| 20260504001604 | 64 | 176 | 1.0 | 5.0 | 0.00 | 0.00 | 0.00 | 46 | 1015.8 |
| 20260504000058 | 65 | 148 | 1.0 | 5.0 | 0.00 | 0.00 | 0.00 | 45 | 1015.7 |
| 20260503234553 | 66 | 236 | 1.0 | 8.0 | 0.00 | 0.00 | 0.00 | 44 | 1015.6 |
| 20260503233059 | 67 | 146 | 2.0 | 9.0 | 0.00 | 0.00 | 0.00 | 43 | 1015.6 |
| 20260503231555 | 67 | 170 | 2.0 | 10.0 | 0.00 | 0.00 | 0.00 | 41 | 1015.6 |
| 20260503224550 | 69 | 194 | 3.0 | 10.0 | 0.00 | 0.00 | 0.00 | 39 | 1015.8 |
| 20260503223058 | 69 | 155 | 4.0 | 13.0 | 0.00 | 0.00 | 0.00 | 37 | 1015.8 |
| 20260503221552 | 69 | 190 | 3.0 | 12.0 | 0.00 | 0.00 | 0.00 | 38 | 1015.9 |
| 20260503220054 | 70 | 145 | 3.0 | 10.0 | 0.00 | 0.00 | 0.00 | 37 | 1016.1 |
| 20260503214554 | 69 | 0 | 5.0 | 15.0 | 0.00 | 0.00 | 0.00 | 37 | 1016.0 |
| 20260503213103 | 69 | 129 | 2.0 | 12.0 | 0.00 | 0.00 | 0.00 | 36 | 1016.2 |
| 20260503211551 | 69 | 165 | 5.0 | 12.0 | 0.00 | 0.00 | 0.00 | 36 | 1016.3 |
| 20260503210100 | 69 | 159 | 4.0 | 16.0 | 0.00 | 0.00 | 0.00 | 34 | 1016.5 |
| 20260503204552 | 69 | 161 | 5.0 | 14.0 | 0.00 | 0.00 | 0.00 | 38 | 1016.7 |
| 20260503203101 | 68 | 142 | 3.0 | 10.0 | 0.00 | 0.00 | 0.00 | 37 | 1016.9 |
| 20260503201552 | 69 | 180 | 4.0 | 10.0 | 0.00 | 0.00 | 0.00 | 36 | 1017.3 |
| 20260503200100 | 68 | 186 | 2.0 | 12.0 | 0.00 | 0.00 | 0.00 | 38 | 1017.6 |
| 20260503194551 | 68 | 141 | 5.0 | 14.0 | 0.00 | 0.00 | 0.00 | 40 | 1017.9 |
| 20260503193101 | 67 | 138 | 4.0 | 12.0 | 0.00 | 0.00 | 0.00 | 39 | 1018.2 |
| 20260503191608 | 67 | 163 | 5.0 | 16.0 | 0.00 | 0.00 | 0.00 | 41 | 1018.3 |
| 20260503190054 | 66 | 152 | 10.0 | 14.0 | 0.00 | 0.00 | 0.00 | 40 | 1018.6 |
| 20260503184601 | 66 | 246 | 7.0 | 14.0 | 0.00 | 0.00 | 0.00 | 40 | 1018.9 |
| 20260503183112 | 66 | 88 | 5.0 | 15.0 | 0.00 | 0.00 | 0.00 | 41 | 1019.0 |
| 20260503181555 | 66 | 227 | 2.0 | 12.0 | 0.00 | 0.00 | 0.00 | 41 | 1019.0 |
| 20260503180055 | 64 | 0 | 2.0 | 10.0 | 0.00 | 0.00 | 0.00 | 44 | 1019.0 |
| 20260503174548 | 64 | 163 | 6.0 | 10.0 | 0.00 | 0.00 | 0.00 | 44 | 1019.3 |
| 20260503173113 | 63 | 319 | 4.0 | 9.0 | 0.00 | 0.00 | 0.00 | 44 | 1019.5 |
| 20260503171554 | 63 | 123 | 1.0 | 8.0 | 0.00 | 0.00 | 0.00 | 47 | 1019.7 |
| 20260503120108 | 42 | 0 | 0.0 | 1.0 | 0.00 | 0.00 | 0.00 | 90 | 1020.5 |
| 20260503100104 | 38 | 0 | 0.0 | 0.0 | 0.00 | 0.00 | 0.00 | 90 | 1018.7 |
| 20260503081547 | 40 | 0 | 0.0 | 1.0 | 0.00 | 0.00 | 0.00 | 89 | 1018.0 |
| 20260503071550 | 41 | 0 | 0.0 | 1.0 | 0.00 | 0.00 | 0.00 | 88 | 1017.4 |